TimeEST,TemperatureF,Dew PointF,Humidity,Sea Level PressureIn,VisibilityMPH,Wind Direction,Wind SpeedMPH,Gust SpeedMPH,PrecipitationIn,Events,Conditions,WindDirDegrees,DateUTC
12:41 AM,44.6,44.6,100,29.93,0.2,Calm,Calm,-,0.02,Fog-Rain,Light Rain,0,2013-01-02 05:41:00
12:53 AM,45.0,44.1,97,29.89,0.2,North,3.5,-,0.03,Fog-Rain,Light Rain,360,2013-01-02 05:53:00
1:06 AM,46.4,44.6,93,29.92,0.5,Calm,Calm,-,0.00,Fog-Rain,Light Rain,0,2013-01-02 06:06:00
1:18 AM,44.6,44.6,100,29.92,0.5,Calm,Calm,-,0.02,Fog-Rain,Rain,0,2013-01-02 06:18:00
1:31 AM,44.6,44.6,100,29.92,0.5,Calm,Calm,-,0.03,Fog-Rain,Light Rain,0,2013-01-02 06:31:00
1:53 AM,45.0,44.1,97,29.90,1.0,Calm,Calm,-,0.03,Rain,Light Rain,0,2013-01-02 06:53:00
2:03 AM,44.6,44.6,100,29.90,0.5,Calm,Calm,-,0.00,Fog,Fog,0,2013-01-02 07:03:00
2:05 AM,44.6,44.6,100,29.90,0.5,Calm,Calm,-,0.00,Fog,Fog,0,2013-01-02 07:05:00
2:13 AM,44.6,44.6,100,29.90,0.5,Calm,Calm,-,0.00,Fog,Fog,0,2013-01-02 07:13:00
2:53 AM,45.0,44.1,97,29.90,0.5,Calm,Calm,-,0.00,Fog,Fog,0,2013-01-02 07:53:00
3:29 AM,44.6,44.6,100,29.93,0.5,North,3.5,-,N/A,Fog,Fog,350,2013-01-02 08:29:00
3:48 AM,44.6,44.6,100,29.93,0.5,Calm,Calm,-,N/A,Fog,Fog,0,2013-01-02 08:48:00
3:53 AM,45.0,44.1,97,29.91,0.5,Calm,Calm,-,N/A,Fog,Fog,0,2013-01-02 08:53:00
4:18 AM,44.6,42.8,93,29.93,0.2,Calm,Calm,-,N/A,Fog,Fog,0,2013-01-02 09:18:00
4:28 AM,44.6,44.6,100,29.94,0.5,Calm,Calm,-,N/A,Fog,Fog,0,2013-01-02 09:28:00
4:43 AM,44.6,44.6,100,29.93,1.5,Calm,Calm,-,N/A,,Overcast,0,2013-01-02 09:43:00
4:53 AM,45.0,44.1,97,29.91,2.5,Calm,Calm,-,N/A,,Overcast,0,2013-01-02 09:53:00
5:14 AM,44.6,44.6,100,29.95,1.8,NW,5.8,-,N/A,,Overcast,310,2013-01-02 10:14:00
5:32 AM,44.6,44.6,100,29.96,3.0,Calm,Calm,-,N/A,,Overcast,0,2013-01-02 10:32:00
5:53 AM,45.0,44.1,97,29.94,2.5,Calm,Calm,-,N/A,,Overcast,0,2013-01-02 10:53:00
6:05 AM,44.6,44.6,100,29.96,4.0,Calm,Calm,-,N/A,,Overcast,0,2013-01-02 11:05:00
6:53 AM,45.0,44.1,97,29.94,3.0,Calm,Calm,-,N/A,,Overcast,0,2013-01-02 11:53:00
7:44 AM,44.6,44.6,100,29.99,4.0,Calm,Calm,-,N/A,,Overcast,0,2013-01-02 12:44:00
7:53 AM,45.0,43.0,93,29.97,4.0,Calm,Calm,-,N/A,,Mostly Cloudy,0,2013-01-02 12:53:00
7:57 AM,44.6,42.8,93,30.00,2.0,Calm,Calm,-,N/A,,Mostly Cloudy,0,2013-01-02 12:57:00
8:04 AM,44.6,42.8,93,30.01,1.2,Calm,Calm,-,N/A,,Mostly Cloudy,0,2013-01-02 13:04:00
8:09 AM,44.6,42.8,93,30.00,3.0,Calm,Calm,-,N/A,,Overcast,0,2013-01-02 13:09:00
8:17 AM,44.6,44.6,100,30.01,5.0,Calm,Calm,-,N/A,,Overcast,0,2013-01-02 13:17:00
8:53 AM,45.0,44.1,97,30.00,4.0,NE,4.6,-,N/A,,Overcast,40,2013-01-02 13:53:00
10:53 AM,48.0,39.9,74,30.05,10.0,ENE,4.6,-,N/A,,Mostly Cloudy,60,2013-01-02 15:53:00
11:53 AM,48.0,41.0,77,30.03,10.0,Calm,Calm,-,0.01,,Overcast,0,2013-01-02 16:53:00
12:31 PM,48.2,39.2,71,30.04,10.0,Calm,Calm,-,N/A,,Overcast,0,2013-01-02 17:31:00
12:53 PM,48.9,39.0,69,30.02,10.0,Calm,Calm,-,N/A,,Overcast,0,2013-01-02 17:53:00
1:53 PM,46.9,39.9,77,30.00,10.0,Variable,3.5,-,N/A,,Overcast,0,2013-01-02 18:53:00
2:53 PM,48.0,39.9,74,30.01,10.0,Calm,Calm,-,N/A,,Overcast,0,2013-01-02 19:53:00
3:53 PM,48.0,39.0,71,30.02,10.0,Calm,Calm,-,N/A,,Overcast,0,2013-01-02 20:53:00
4:53 PM,46.9,37.9,71,30.04,10.0,ESE,3.5,-,N/A,,Overcast,110,2013-01-02 21:53:00
6:53 PM,46.0,36.0,68,30.07,10.0,Variable,3.5,-,N/A,,Overcast,0,2013-01-02 23:53:00
7:53 PM,44.1,33.1,65,30.08,10.0,East,6.9,-,N/A,,Overcast,80,2013-01-03 00:53:00
8:53 PM,43.0,32.0,65,30.09,10.0,East,5.8,-,N/A,,Overcast,90,2013-01-03 01:53:00
9:53 PM,42.1,30.9,65,30.12,10.0,East,3.5,-,N/A,,Overcast,90,2013-01-03 02:53:00
10:53 PM,42.1,30.0,62,30.13,10.0,Variable,3.5,-,N/A,,Overcast,0,2013-01-03 03:53:00
11:53 PM,41.0,30.9,67,30.11,10.0,East,3.5,-,N/A,,Overcast,80,2013-01-03 04:53:00